Location: Roland
(31.1349°N, 85.4372°W)
Time: 18:02:11
(UTC+00:00)

SR - Pass Details

Date: 21 April 2021
Orbit: 573 x 882 km, 66.7° (Epoch: 12 May)

Event Time Altitude Azimuth Distance (km) Brightness Sun altitude
Rises 12:16:56 0° 207° (SSW) 3,211 ? 13.9°
Reaches altitude 10° 12:19:14 10° 208° (SSW) 2,333 ? 14.4°
Maximum altitude 12:24:39 80° 295° (WNW) 843 ? 15.6°
Drops below altitude 10° 12:30:30 10° 23° (NNE) 2,506 ? 16.8°
Sets 12:33:03 0° 24° (NNE) 3,466 ? 17.4°
